SWA3402 KDAL-KBHM

Flight info

Callsign SWA3402
Flight time 1h 12m
Altitude 37000
Route LNDRE5 FORCK IZAAC HRISN NESTS
Aircraft B38M/M-SADE2E3GHIJ4J7P2RWZ/LB1D1

Departure

Time 2026-05-09 03:02
Airport Dallas Love Field (KDAL)

Arrival

Time 2026-05-09 04:14
Airport Birmingham-Shuttlesworth International Airport (KBHM)
Time Latitude Longitude Altitude Speed Heading
2026-05-09 02:21 32.84618 -96.84754 486 ft 0 kts 298°
2026-05-09 02:53 32.84618 -96.84753 486 ft 1 kts 298°
2026-05-09 02:53 32.84607 -96.84730 486 ft 4 kts 298°
2026-05-09 02:54 32.84598 -96.84709 486 ft 4 kts 298°
2026-05-09 02:54 32.84591 -96.84693 486 ft 0 kts 298°
2026-05-09 02:58 32.84625 -96.84695 486 ft 13 kts 18°
2026-05-09 02:58 32.84699 -96.84736 486 ft 15 kts 317°
2026-05-09 02:58 32.84775 -96.84866 486 ft 24 kts 308°
2026-05-09 02:59 32.84918 -96.85030 486 ft 32 kts 316°
2026-05-09 02:59 32.85077 -96.85231 486 ft 34 kts 317°
2026-05-09 02:59 32.85256 -96.85413 486 ft 34 kts 322°
2026-05-09 02:59 32.85433 -96.85604 486 ft 34 kts 316°
2026-05-09 03:00 32.85604 -96.85782 486 ft 28 kts 351°
2026-05-09 03:00 32.85709 -96.85659 489 ft 11 kts 120°
2026-05-09 03:00 32.85691 -96.85637 489 ft 0 kts 135°
2026-05-09 03:00 32.85686 -96.85631 489 ft 5 kts 136°
2026-05-09 03:01 32.85495 -96.85412 489 ft 74 kts 136°
2026-05-09 03:01 32.84991 -96.84821 485 ft 121 kts 135°
2026-05-09 03:01 32.84325 -96.84046 494 ft 150 kts 139°
2026-05-09 03:01 32.83434 -96.83237 930 ft 166 kts 153°
2026-05-09 03:02 32.82468 -96.82488 1670 ft 176 kts 144°
2026-05-09 03:02 32.81505 -96.81465 2287 ft 203 kts 136°
2026-05-09 03:02 32.80483 -96.80357 3235 ft 201 kts 139°
2026-05-09 03:02 32.79358 -96.79153 3797 ft 233 kts 140°
2026-05-09 03:03 32.78149 -96.77730 4463 ft 257 kts 137°
2026-05-09 03:03 32.76812 -96.76171 5284 ft 273 kts 139°
2026-05-09 03:03 32.75452 -96.74586 6477 ft 276 kts 137°
2026-05-09 03:03 32.74098 -96.72972 7616 ft 275 kts 138°
2026-05-09 03:04 32.72729 -96.71366 8665 ft 277 kts 139°
2026-05-09 03:04 32.71365 -96.69786 9681 ft 278 kts 139°
2026-05-09 03:04 32.69991 -96.68159 10617 ft 282 kts 139°
2026-05-09 03:04 32.68784 -96.66228 11017 ft 306 kts 117°
2026-05-09 03:05 32.68269 -96.63700 11362 ft 328 kts 94°
2026-05-09 03:05 32.68227 -96.60921 11722 ft 345 kts 92°
2026-05-09 03:05 32.68169 -96.58015 12176 ft 359 kts 92°
2026-05-09 03:05 32.68262 -96.55012 12647 ft 370 kts 78°
2026-05-09 03:06 32.69124 -96.52171 13219 ft 374 kts 58°
2026-05-09 03:06 32.70535 -96.49551 13852 ft 379 kts 54°
2026-05-09 03:06 32.71990 -96.46935 14543 ft 382 kts 53°
2026-05-09 03:06 32.73478 -96.44290 15211 ft 387 kts 53°
2026-05-09 03:07 32.74987 -96.41627 15869 ft 390 kts 53°
2026-05-09 03:07 32.76514 -96.38941 16485 ft 394 kts 53°
2026-05-09 03:07 32.78058 -96.36226 17090 ft 398 kts 53°
2026-05-09 03:07 32.79361 -96.33301 17672 ft 405 kts 70°
2026-05-09 03:08 32.79951 -96.30020 18263 ft 409 kts 81°
2026-05-09 03:08 32.80351 -96.26649 18785 ft 414 kts 82°
2026-05-09 03:08 32.80730 -96.23295 19315 ft 417 kts 82°
2026-05-09 03:08 32.81103 -96.19850 19831 ft 421 kts 82°
2026-05-09 03:09 32.81468 -96.16382 20334 ft 425 kts 82°
2026-05-09 03:09 32.81829 -96.12916 20821 ft 428 kts 82°
2026-05-09 03:09 32.82193 -96.09388 21298 ft 432 kts 82°
2026-05-09 03:09 32.82560 -96.05834 21772 ft 435 kts 82°
2026-05-09 03:10 32.82928 -96.02255 22234 ft 438 kts 82°
2026-05-09 03:10 32.83298 -95.98641 22651 ft 442 kts 82°
2026-05-09 03:10 32.83670 -95.94993 23028 ft 447 kts 82°
2026-05-09 03:10 32.84041 -95.91358 23416 ft 451 kts 82°
2026-05-09 03:11 32.84418 -95.87648 23839 ft 453 kts 82°
2026-05-09 03:11 32.84797 -95.83909 24222 ft 457 kts 82°
2026-05-09 03:11 32.85175 -95.80149 24582 ft 461 kts 82°
2026-05-09 03:11 32.85557 -95.76349 24952 ft 464 kts 82°
2026-05-09 03:12 32.85942 -95.72515 25310 ft 468 kts 83°
2026-05-09 03:12 32.86328 -95.68655 25650 ft 472 kts 83°
2026-05-09 03:12 32.86715 -95.64774 25991 ft 475 kts 83°
2026-05-09 03:12 32.87105 -95.60851 26311 ft 478 kts 83°
2026-05-09 03:13 32.87875 -95.53062 27175 ft 478 kts 83°
2026-05-09 03:13 32.88264 -95.49113 27417 ft 483 kts 83°
2026-05-09 03:13 32.88654 -95.45137 27751 ft 485 kts 83°
2026-05-09 03:14 32.88922 -95.42396 27957 ft 487 kts 83°
2026-05-09 03:14 32.89314 -95.38378 28229 ft 490 kts 83°
2026-05-09 03:14 32.89706 -95.34343 28500 ft 493 kts 83°
2026-05-09 03:14 32.90101 -95.30271 28798 ft 496 kts 83°
2026-05-09 03:15 32.90495 -95.26182 29071 ft 499 kts 83°
2026-05-09 03:15 32.90885 -95.22122 29350 ft 502 kts 83°
2026-05-09 03:15 32.91283 -95.17983 29583 ft 505 kts 83°
2026-05-09 03:15 32.91679 -95.13824 29853 ft 507 kts 83°
2026-05-09 03:16 32.92078 -95.09640 30092 ft 510 kts 84°
2026-05-09 03:16 32.92428 -95.05951 30285 ft 513 kts 84°
2026-05-09 03:16 32.92827 -95.01730 30551 ft 515 kts 84°
2026-05-09 03:16 32.93227 -94.97478 30794 ft 518 kts 84°
2026-05-09 03:17 32.93628 -94.93216 31032 ft 520 kts 84°
2026-05-09 03:17 32.94029 -94.88925 31245 ft 523 kts 84°
2026-05-09 03:17 32.94425 -94.84672 31455 ft 525 kts 84°
2026-05-09 03:17 32.94827 -94.80339 31679 ft 527 kts 84°
2026-05-09 03:18 32.95229 -94.75991 31879 ft 530 kts 85°
2026-05-09 03:18 32.95592 -94.72052 32065 ft 532 kts 85°
2026-05-09 03:18 32.95928 -94.68388 32240 ft 534 kts 85°
2026-05-09 03:18 32.96331 -94.63985 32467 ft 536 kts 85°
2026-05-09 03:19 32.96734 -94.59559 32618 ft 540 kts 85°
2026-05-09 03:19 32.97132 -94.55171 32848 ft 541 kts 85°
2026-05-09 03:19 32.97536 -94.50710 33031 ft 543 kts 85°
2026-05-09 03:19 32.97939 -94.46226 33196 ft 546 kts 85°
2026-05-09 03:20 32.98343 -94.41724 33442 ft 547 kts 85°
2026-05-09 03:20 32.98745 -94.37228 33701 ft 547 kts 86°
2026-05-09 03:20 32.99148 -94.32714 33941 ft 548 kts 86°
2026-05-09 03:20 32.99559 -94.28201 34205 ft 548 kts 84°
2026-05-09 03:21 33.00174 -94.23718 34406 ft 550 kts 82°
2026-05-09 03:21 33.00799 -94.19209 34599 ft 552 kts 82°
2026-05-09 03:21 33.01396 -94.14750 34816 ft 552 kts 83°
2026-05-09 03:21 33.01993 -94.10234 35053 ft 553 kts 83°
2026-05-09 03:22 33.02589 -94.05708 35246 ft 554 kts 83°
2026-05-09 03:22 33.03186 -94.01171 35429 ft 555 kts 83°
2026-05-09 03:22 33.03781 -93.96628 35616 ft 555 kts 83°
2026-05-09 03:23 33.04639 -93.90058 35775 ft 559 kts 83°
2026-05-09 03:23 33.05228 -93.85530 35943 ft 560 kts 83°
2026-05-09 03:23 33.05822 -93.80947 36118 ft 561 kts 83°
2026-05-09 03:24 33.06418 -93.76347 36286 ft 561 kts 83°
2026-05-09 03:24 33.07011 -93.71744 36439 ft 562 kts 83°
2026-05-09 03:24 33.07603 -93.67138 36571 ft 564 kts 83°
2026-05-09 03:24 33.08195 -93.62519 36762 ft 563 kts 83°
2026-05-09 03:25 33.08785 -93.57909 36929 ft 562 kts 83°
2026-05-09 03:25 33.09372 -93.53305 36933 ft 560 kts 83°
2026-05-09 03:25 33.10529 -93.44176 36931 ft 556 kts 83°
2026-05-09 03:26 33.11670 -93.35124 36928 ft 556 kts 83°
2026-05-09 03:26 33.12814 -93.25994 36928 ft 557 kts 83°
2026-05-09 03:27 33.13954 -93.16852 36928 ft 557 kts 83°
2026-05-09 03:27 33.15086 -93.07702 36933 ft 557 kts 83°
2026-05-09 03:28 33.16136 -92.99173 36942 ft 557 kts 83°
2026-05-09 03:28 33.17256 -92.90016 36943 ft 557 kts 83°
2026-05-09 03:29 33.18369 -92.80864 36941 ft 557 kts 83°
2026-05-09 03:29 33.19474 -92.71707 36945 ft 558 kts 83°
2026-05-09 03:30 33.20204 -92.65637 36941 ft 557 kts 83°
2026-05-09 03:30 33.20576 -92.62535 36946 ft 557 kts 83°
2026-05-09 03:31 33.21668 -92.53375 36942 ft 558 kts 83°
2026-05-09 03:31 33.22756 -92.44198 36948 ft 559 kts 84°
2026-05-09 03:32 33.23837 -92.35011 36949 ft 559 kts 84°
2026-05-09 03:32 33.24906 -92.25875 36952 ft 559 kts 84°
2026-05-09 03:33 33.25974 -92.16690 36955 ft 558 kts 84°
2026-05-09 03:33 33.27035 -92.07496 36962 ft 559 kts 84°
2026-05-09 03:34 33.28090 -91.98302 36971 ft 559 kts 84°
2026-05-09 03:34 33.29131 -91.89167 36991 ft 560 kts 84°
2026-05-09 03:35 33.30174 -91.79946 36981 ft 559 kts 84°
2026-05-09 03:35 33.31209 -91.70741 36981 ft 559 kts 84°
2026-05-09 03:36 33.32240 -91.61535 36970 ft 557 kts 84°
2026-05-09 03:36 33.33253 -91.52389 36983 ft 560 kts 84°
2026-05-09 03:37 33.34267 -91.43159 36973 ft 559 kts 84°
2026-05-09 03:37 33.35276 -91.33939 36964 ft 559 kts 84°
2026-05-09 03:38 33.36276 -91.24721 36953 ft 559 kts 84°
2026-05-09 03:38 33.37265 -91.15557 36944 ft 559 kts 84°
2026-05-09 03:39 33.38251 -91.06345 36944 ft 559 kts 84°
2026-05-09 03:39 33.39232 -90.97118 36934 ft 559 kts 84°
2026-05-09 03:40 33.40205 -90.87888 36932 ft 559 kts 84°
2026-05-09 03:40 33.41173 -90.78655 36934 ft 560 kts 84°
2026-05-09 03:41 33.42129 -90.69472 36935 ft 560 kts 84°
2026-05-09 03:41 33.43085 -90.60229 36942 ft 559 kts 85°
2026-05-09 03:42 33.44035 -90.50981 36948 ft 560 kts 84°
2026-05-09 03:42 33.44980 -90.41720 36943 ft 560 kts 85°
2026-05-09 03:43 33.45916 -90.32471 36945 ft 560 kts 85°
2026-05-09 03:43 33.46456 -90.23252 36962 ft 558 kts 91°
2026-05-09 03:44 33.46643 -90.13960 36954 ft 558 kts 92°
2026-05-09 03:44 33.46809 -90.04672 36956 ft 558 kts 92°
2026-05-09 03:45 33.46970 -89.95382 36954 ft 558 kts 92°
2026-05-09 03:45 33.47120 -89.86146 36959 ft 559 kts 92°
2026-05-09 03:46 33.47266 -89.76848 36971 ft 558 kts 92°
2026-05-09 03:46 33.47404 -89.67548 36976 ft 558 kts 92°
2026-05-09 03:47 33.47536 -89.58246 36970 ft 558 kts 92°
2026-05-09 03:47 33.47660 -89.48951 36973 ft 558 kts 92°
2026-05-09 03:48 33.47777 -89.39712 36969 ft 558 kts 92°
2026-05-09 03:48 33.47833 -89.35085 36699 ft 552 kts 92°
2026-05-09 03:48 33.47887 -89.30501 36182 ft 549 kts 92°
2026-05-09 03:49 33.47939 -89.25943 35641 ft 547 kts 92°
2026-05-09 03:49 33.47988 -89.21402 35096 ft 545 kts 93°
2026-05-09 03:49 33.48036 -89.16875 34540 ft 543 kts 93°
2026-05-09 03:49 33.48083 -89.12357 33980 ft 541 kts 93°
2026-05-09 03:50 33.48128 -89.07864 33419 ft 539 kts 93°
2026-05-09 03:50 33.48170 -89.03378 32843 ft 538 kts 93°
2026-05-09 03:50 33.48211 -88.98966 32256 ft 537 kts 94°
2026-05-09 03:50 33.48250 -88.94505 31655 ft 535 kts 94°
2026-05-09 03:51 33.48288 -88.90078 31046 ft 527 kts 94°
2026-05-09 03:51 33.48323 -88.85737 30521 ft 515 kts 94°
2026-05-09 03:51 33.48357 -88.81492 30003 ft 506 kts 95°
2026-05-09 03:51 33.48387 -88.77289 29452 ft 504 kts 95°
2026-05-09 03:52 33.48418 -88.73092 28898 ft 503 kts 94°
2026-05-09 03:52 33.48446 -88.68908 28380 ft 501 kts 94°
2026-05-09 03:52 33.48473 -88.64800 27872 ft 499 kts 94°
2026-05-09 03:52 33.48499 -88.60655 27362 ft 497 kts 93°
2026-05-09 03:53 33.48524 -88.56519 26861 ft 493 kts 93°
2026-05-09 03:53 33.48540 -88.52971 26414 ft 482 kts 95°
2026-05-09 03:53 33.48128 -88.49083 25883 ft 463 kts 110°
2026-05-09 03:53 33.47794 -88.47535 25729 ft 457 kts 110°
2026-05-09 03:54 33.47185 -88.44334 25399 ft 447 kts 108°
2026-05-09 03:54 33.46514 -88.40737 24947 ft 438 kts 108°
2026-05-09 03:54 33.45845 -88.37214 24504 ft 430 kts 108°
2026-05-09 03:54 33.45189 -88.33795 24085 ft 427 kts 108°
2026-05-09 03:55 33.44523 -88.30328 23616 ft 429 kts 107°
2026-05-09 03:55 33.43850 -88.26828 23142 ft 432 kts 107°
2026-05-09 03:55 33.43174 -88.23317 22689 ft 433 kts 107°
2026-05-09 03:55 33.42497 -88.19807 22201 ft 433 kts 106°
2026-05-09 03:56 33.41818 -88.16294 21735 ft 433 kts 106°
2026-05-09 03:56 33.41138 -88.12781 21249 ft 434 kts 106°
2026-05-09 03:56 33.40454 -88.09255 20758 ft 435 kts 105°
2026-05-09 03:56 33.39770 -88.05730 20290 ft 435 kts 105°
2026-05-09 03:57 33.39101 -88.02294 19898 ft 424 kts 105°
2026-05-09 03:57 33.38442 -87.98906 19525 ft 412 kts 105°
2026-05-09 03:57 33.37799 -87.95610 19154 ft 403 kts 105°
2026-05-09 03:57 33.37163 -87.92356 18768 ft 401 kts 104°
2026-05-09 03:58 33.36528 -87.89113 18381 ft 399 kts 104°
2026-05-09 03:58 33.35972 -87.86283 18045 ft 398 kts 104°
2026-05-09 03:58 33.35342 -87.83067 17661 ft 396 kts 104°
2026-05-09 03:58 33.34893 -87.80786 17385 ft 395 kts 104°
2026-05-09 03:59 33.34275 -87.77639 17021 ft 393 kts 104°
2026-05-09 03:59 33.33649 -87.74465 16621 ft 391 kts 104°
2026-05-09 03:59 33.33026 -87.71306 16230 ft 389 kts 104°
2026-05-09 03:59 33.32406 -87.68167 15852 ft 387 kts 104°
2026-05-09 04:00 33.31787 -87.65039 15468 ft 386 kts 104°
2026-05-09 04:00 33.31170 -87.61926 15084 ft 384 kts 104°
2026-05-09 04:00 33.30557 -87.58834 14701 ft 382 kts 104°
2026-05-09 04:00 33.29944 -87.55750 14317 ft 379 kts 105°
2026-05-09 04:01 33.29341 -87.52737 13951 ft 368 kts 105°
2026-05-09 04:01 33.28770 -87.49861 13643 ft 355 kts 105°
2026-05-09 04:01 33.28205 -87.47027 13253 ft 346 kts 105°
2026-05-09 04:01 33.27649 -87.44240 12900 ft 344 kts 105°
2026-05-09 04:02 33.27094 -87.41464 12531 ft 343 kts 105°
2026-05-09 04:02 33.26541 -87.38696 12182 ft 342 kts 105°
2026-05-09 04:02 33.26055 -87.36272 11860 ft 340 kts 105°
2026-05-09 04:02 33.25505 -87.33527 11508 ft 339 kts 105°
2026-05-09 04:03 33.24957 -87.30797 11158 ft 337 kts 105°
2026-05-09 04:03 33.24410 -87.28077 10809 ft 336 kts 106°
2026-05-09 04:03 33.23926 -87.25391 10448 ft 335 kts 97°
2026-05-09 04:03 33.24063 -87.22624 10189 ft 333 kts 83°
2026-05-09 04:04 33.24346 -87.19929 10089 ft 321 kts 84°
2026-05-09 04:04 33.24566 -87.17800 9922 ft 313 kts 84°
2026-05-09 04:04 33.24837 -87.15225 9584 ft 312 kts 84°
2026-05-09 04:04 33.24925 -87.14393 9471 ft 312 kts 84°
2026-05-09 04:05 33.25065 -87.13079 9296 ft 312 kts 85°
2026-05-09 04:05 33.25338 -87.10513 8959 ft 311 kts 85°
2026-05-09 04:05 33.25606 -87.07988 8613 ft 308 kts 85°
2026-05-09 04:05 33.25872 -87.05477 8285 ft 301 kts 85°
2026-05-09 04:06 33.26132 -87.03027 7966 ft 294 kts 85°
2026-05-09 04:06 33.26387 -87.00627 7654 ft 289 kts 85°
2026-05-09 04:06 33.26635 -86.98269 7346 ft 283 kts 85°
2026-05-09 04:06 33.26879 -86.95957 7050 ft 277 kts 85°
2026-05-09 04:07 33.27118 -86.93679 7007 ft 279 kts 85°
2026-05-09 04:07 33.27365 -86.91343 6988 ft 287 kts 85°
2026-05-09 04:07 33.27614 -86.88958 6988 ft 291 kts 85°
2026-05-09 04:07 33.27861 -86.86556 6782 ft 292 kts 86°
2026-05-09 04:08 33.28102 -86.84116 6307 ft 298 kts 85°
2026-05-09 04:08 33.28349 -86.81650 5835 ft 298 kts 85°
2026-05-09 04:08 33.28598 -86.79243 5400 ft 293 kts 82°
2026-05-09 04:08 33.29318 -86.77046 5223 ft 280 kts 55°
2026-05-09 04:09 33.30728 -86.75511 5029 ft 272 kts 27°
2026-05-09 04:09 33.32486 -86.74840 4808 ft 262 kts
2026-05-09 04:09 33.34280 -86.74745 4595 ft 255 kts 358°
2026-05-09 04:09 33.36039 -86.74707 4377 ft 251 kts 357°
2026-05-09 04:10 33.37770 -86.74691 4156 ft 246 kts 357°
2026-05-09 04:10 33.39463 -86.74687 3905 ft 242 kts 357°
2026-05-09 04:10 33.41107 -86.74690 3567 ft 236 kts 356°
2026-05-09 04:10 33.42734 -86.74698 3163 ft 233 kts 357°
2026-05-09 04:11 33.44313 -86.74707 2950 ft 218 kts 358°
2026-05-09 04:11 33.45787 -86.74716 2763 ft 210 kts 359°
2026-05-09 04:11 33.47231 -86.74720 2472 ft 204 kts
2026-05-09 04:11 33.48606 -86.74724 2187 ft 189 kts
2026-05-09 04:12 33.49865 -86.74718 1894 ft 177 kts 359°
2026-05-09 04:12 33.51094 -86.74718 1701 ft 176 kts 359°
2026-05-09 04:12 33.52311 -86.74716 1459 ft 178 kts 360°
2026-05-09 04:12 33.53521 -86.74715 1157 ft 171 kts 359°
2026-05-09 04:13 33.54670 -86.74719 834 ft 160 kts 360°
2026-05-09 04:13 33.55750 -86.74723 616 ft 147 kts 360°
2026-05-09 04:13 33.56642 -86.74723 611 ft 100 kts 360°
2026-05-09 04:13 33.57096 -86.74722 613 ft 57 kts
2026-05-09 04:14 33.57311 -86.74788 610 ft 16 kts 264°
2026-05-09 04:14 33.57235 -86.74852 610 ft 16 kts 180°
2026-05-09 04:14 33.57121 -86.74852 611 ft 17 kts 180°
2026-05-09 04:14 33.57002 -86.74851 611 ft 18 kts 179°
2026-05-09 04:15 33.56875 -86.74851 612 ft 19 kts 180°
2026-05-09 04:15 33.56739 -86.74852 611 ft 20 kts 180°
2026-05-09 04:15 33.56605 -86.74884 610 ft 18 kts 241°
2026-05-09 04:15 33.56588 -86.75023 609 ft 18 kts 245°
2026-05-09 04:16 33.56518 -86.75152 610 ft 19 kts 236°
2026-05-09 04:16 33.56438 -86.75288 610 ft 21 kts 234°
2026-05-09 04:16 33.56351 -86.75340 610 ft 13 kts 162°
2026-05-09 04:16 33.56280 -86.75397 610 ft 14 kts 235°
2026-05-09 04:17 33.56233 -86.75478 610 ft 11 kts 230°
2026-05-09 04:17 33.56206 -86.75477 610 ft 4 kts 165°
2026-05-09 04:17 33.56174 -86.75460 621 ft 6 kts 155°
2026-05-09 04:17 33.56168 -86.75456 610 ft 0 kts 155°